TimeEDT,TemperatureF,Dew PointF,Humidity,Sea Level PressureIn,VisibilityMPH,Wind Direction,Wind SpeedMPH,Gust SpeedMPH,PrecipitationIn,Events,Conditions,WindDirDegrees,DateUTC
12:24 AM,53.6,53.6,100,29.91,7.0,Calm,Calm,-,N/A,,Clear,0,2012-10-01 04:24:00
12:45 AM,53.6,53.6,100,29.91,7.0,Calm,Calm,-,N/A,,Clear,0,2012-10-01 04:45:00
1:06 AM,53.6,53.6,100,29.90,5.0,West,3.5,-,N/A,,Clear,260,2012-10-01 05:06:00
1:27 AM,51.8,51.8,100,29.90,7.0,WNW,4.6,-,N/A,,Clear,300,2012-10-01 05:27:00
1:48 AM,51.8,51.8,100,29.91,10.0,WSW,3.5,-,N/A,,Clear,250,2012-10-01 05:48:00
2:09 AM,51.8,51.8,100,29.92,7.0,Calm,Calm,-,N/A,,Clear,0,2012-10-01 06:09:00
2:54 AM,50.0,50.0,100,29.91,4.0,West,3.5,-,N/A,,Clear,270,2012-10-01 06:54:00
3:15 AM,50.0,50.0,100,29.91,4.0,Calm,Calm,-,N/A,,Clear,0,2012-10-01 07:15:00
3:36 AM,50.0,50.0,100,29.91,3.0,Calm,Calm,-,N/A,,Clear,0,2012-10-01 07:36:00
3:57 AM,50.0,50.0,100,29.91,2.0,Calm,Calm,-,N/A,,Clear,0,2012-10-01 07:57:00
4:18 AM,50.0,50.0,100,29.92,5.0,Calm,Calm,-,N/A,,Clear,0,2012-10-01 08:18:00
4:39 AM,50.0,50.0,100,29.92,5.0,Calm,Calm,-,N/A,,Clear,0,2012-10-01 08:39:00
5:00 AM,50.0,50.0,100,29.92,5.0,Calm,Calm,-,N/A,,Clear,0,2012-10-01 09:00:00
5:21 AM,50.0,50.0,100,29.93,4.0,Calm,Calm,-,N/A,,Clear,0,2012-10-01 09:21:00
5:33 AM,50.0,50.0,100,29.93,5.0,Calm,Calm,-,N/A,,Clear,0,2012-10-01 09:33:00
5:55 AM,50.0,50.0,100,29.93,5.0,Calm,Calm,-,N/A,,Mostly Cloudy,0,2012-10-01 09:55:00
6:50 AM,50.0,50.0,100,29.93,5.0,NW,3.5,-,N/A,,Scattered Clouds,320,2012-10-01 10:50:00
7:45 AM,50.0,50.0,100,29.95,7.0,NW,4.6,-,N/A,,Scattered Clouds,320,2012-10-01 11:45:00
8:55 AM,57.2,53.6,88,29.97,10.0,NW,4.6,-,N/A,,Scattered Clouds,310,2012-10-01 12:55:00
9:45 AM,59.0,53.6,82,29.98,10.0,Calm,Calm,-,N/A,,Scattered Clouds,0,2012-10-01 13:45:00
11:50 AM,66.2,53.6,64,29.97,10.0,Calm,Calm,-,N/A,,Scattered Clouds,0,2012-10-01 15:50:00
12:45 PM,68.0,55.4,64,29.97,10.0,SE,9.2,-,N/A,,Scattered Clouds,140,2012-10-01 16:45:00
3:45 PM,68.0,53.6,60,29.94,10.0,SE,8.1,-,N/A,,Mostly Cloudy,140,2012-10-01 19:45:00
4:45 PM,68.0,55.4,64,29.94,10.0,SE,5.8,-,N/A,,Mostly Cloudy,140,2012-10-01 20:45:00
6:45 PM,66.2,51.8,60,29.96,10.0,South,6.9,-,N/A,,Overcast,180,2012-10-01 22:45:00
7:45 PM,66.2,51.8,60,29.97,10.0,South,4.6,-,N/A,,Overcast,170,2012-10-01 23:45:00
8:55 PM,64.4,55.4,73,29.98,10.0,South,4.6,-,N/A,Rain,Light Rain,180,2012-10-02 00:55:00
9:50 PM,64.4,57.2,77,29.98,10.0,SSE,4.6,-,N/A,,Overcast,160,2012-10-02 01:50:00
10:42 PM,62.6,59.0,88,29.96,10.0,Calm,Calm,-,N/A,,Scattered Clouds,0,2012-10-02 02:42:00
11:03 PM,62.6,59.0,88,29.97,10.0,Calm,Calm,-,N/A,,Mostly Cloudy,0,2012-10-02 03:03:00
11:24 PM,62.6,59.0,88,29.98,10.0,Calm,Calm,-,N/A,,Overcast,0,2012-10-02 03:24:00
11:48 PM,62.6,59.0,88,29.97,10.0,Calm,Calm,-,N/A,,Overcast,0,2012-10-02 03:48:00